• In Belarus
  • List of Countries
  • For 7 days
  • Water Temperature
  • Satellite Maps
  • Weather Map
  • Weather Widgets
  • user-avatar
    Login

    Hourly Weather Shkoder

    Today, 14 August, Tuesday

    Time Temperature Precipitation Wind Pressure Humidity
    00:00 +23°C° 0 mm 2 mps 738 mmHg 75%
    01:00 +23°C° 0 mm 2 mps 738 mmHg 75%
    02:00 +23°C° 0 mm 2 mps 738 mmHg 75%
    03:00 +21°C° 0 mm 2 mps 738 mmHg 74%
    04:00 +21°C° 0 mm 2 mps 738 mmHg 73%
    05:00 +24°C° 0 mm 2 mps 738 mmHg 67%
    06:00 +25°C° 0 mm 1 mps 738 mmHg 62%
    07:00 +27°C° 0 mm 1 mps 738 mmHg 56%
    08:00 +29°C° 0 mm 1 mps 738 mmHg 50%
    09:00 +31°C° 0 mm 1 mps 738 mmHg 44%
    10:00 +32°C° 0 mm 1 mps 738 mmHg 38%
    11:00 +34°C° 0 mm 2 mps 738 mmHg 38%
    12:00 +34°C° 0 mm 2 mps 738 mmHg 37%
    13:00 +35°C° 0 mm 3 mps 738 mmHg 37%
    14:00 +34°C° 0 mm 3 mps 738 mmHg 40%
    15:00 +32°C° 0 mm 2 mps 737 mmHg 43%
    16:00 +32°C° 0 mm 2 mps 737 mmHg 46%
    17:00 +30°C° 0.2 mm 2 mps 737 mmHg 53%
    18:00 +27°C° 0.2 mm 1 mps 737 mmHg 60%
    19:00 +25°C° 0.2 mm 1 mps 737 mmHg 67%
    20:00 +25°C° 0.2 mm 1 mps 737 mmHg 68%
    21:00 +24°C° 0.2 mm 1 mps 737 mmHg 70%
    22:00 +24°C° 0.2 mm 1 mps 738 mmHg 72%
    23:00 +23°C° 0 mm 1 mps 738 mmHg 72%

    Tomorrow, 15 August, Wednesday

    Time Temperature Precipitation Wind Pressure Humidity
    00:00 +23°C° 0 mm 1 mps 738 mmHg 73%
    01:00 +22°C° 0 mm 1 mps 738 mmHg 74%
    02:00 +22°C° 0 mm 1 mps 737 mmHg 74%
    03:00 +21°C° 0 mm 2 mps 737 mmHg 73%
    04:00 +21°C° 0 mm 2 mps 737 mmHg 73%
    05:00 +23°C° 0 mm 2 mps 737 mmHg 68%
    06:00 +25°C° 0 mm 2 mps 737 mmHg 64%
    07:00 +26°C° 0 mm 2 mps 738 mmHg 60%
    08:00 +28°C° 0.1 mm 2 mps 738 mmHg 53%
    09:00 +30°C° 0.1 mm 2 mps 738 mmHg 46%
    10:00 +32°C° 0.1 mm 1 mps 738 mmHg 40%
    11:00 +34°C° 0.4 mm 2 mps 738 mmHg 40%
    12:00 +34°C° 0.4 mm 2 mps 738 mmHg 39%
    13:00 +34°C° 0.4 mm 3 mps 738 mmHg 39%
    14:00 +34°C° 0.7 mm 3 mps 738 mmHg 43%
    15:00 +33°C° 0.7 mm 3 mps 738 mmHg 46%
    16:00 +31°C° 0.7 mm 3 mps 738 mmHg 50%
    17:00 +29°C° 0.9 mm 3 mps 738 mmHg 55%
    18:00 +27°C° 0.9 mm 3 mps 738 mmHg 61%
    19:00 +26°C° 0.9 mm 2 mps 738 mmHg 67%
    20:00 +25°C° 0.5 mm 2 mps 738 mmHg 69%
    21:00 +25°C° 0.5 mm 3 mps 739 mmHg 71%
    22:00 +24°C° 0.5 mm 3 mps 739 mmHg 73%
    23:00 +24°C° 0.3 mm 3 mps 739 mmHg 74%

    Day after tomorrow, 16 August, Thursday

    Time Temperature Precipitation Wind Pressure Humidity
    00:00 +22°C° 0.3 mm 3 mps 739 mmHg 75%
    01:00 +22°C° 0.3 mm 3 mps 739 mmHg 76%
    02:00 +22°C° 0.3 mm 3 mps 738 mmHg 77%
    03:00 +22°C° 0.3 mm 3 mps 738 mmHg 78%
    04:00 +21°C° 0.3 mm 3 mps 738 mmHg 78%
    05:00 +22°C° 0.1 mm 3 mps 738 mmHg 75%
    06:00 +24°C° 0.1 mm 3 mps 738 mmHg 71%
    07:00 +26°C° 0.1 mm 3 mps 739 mmHg 67%
    08:00 +27°C° 0 mm 3 mps 739 mmHg 61%
    09:00 +29°C° 0 mm 3 mps 739 mmHg 54%
    10:00 +31°C° 0 mm 2 mps 739 mmHg 47%
    11:00 +32°C° 0.2 mm 2 mps 739 mmHg 45%
    12:00 +32°C° 0.2 mm 2 mps 739 mmHg 43%
    13:00 +34°C° 0.2 mm 3 mps 738 mmHg 41%
    14:00 +34°C° 0.3 mm 3 mps 738 mmHg 43%
    15:00 +33°C° 0.3 mm 3 mps 738 mmHg 44%
    16:00 +33°C° 0.3 mm 3 mps 738 mmHg 46%
    17:00 +30°C° 0.2 mm 2 mps 738 mmHg 51%
    18:00 +28°C° 0.2 mm 2 mps 738 mmHg 57%
    19:00 +26°C° 0.2 mm 2 mps 739 mmHg 62%
    20:00 +25°C° 0.4 mm 2 mps 739 mmHg 65%
    21:00 +24°C° 0.4 mm 2 mps 739 mmHg 67%
    22:00 +24°C° 0.4 mm 2 mps 739 mmHg 70%
    23:00 +23°C° 0.3 mm 2 mps 739 mmHg 71%

    17 August, Friday

    Time Temperature Precipitation Wind Pressure Humidity
    00:00 +23°C° 0.3 mm 2 mps 739 mmHg 72%
    01:00 +23°C° 0.3 mm 2 mps 739 mmHg 73%
    02:00 +23°C° 0.2 mm 2 mps 739 mmHg 74%
    03:00 +21°C° 0.2 mm 2 mps 739 mmHg 75%
    04:00 +21°C° 0.2 mm 2 mps 739 mmHg 76%
    05:00 +23°C° 0.1 mm 2 mps 739 mmHg 72%
    06:00 +25°C° 0.1 mm 2 mps 739 mmHg 69%
    07:00 +26°C° 0.1 mm 2 mps 739 mmHg 65%
    08:00 +28°C° 0.2 mm 1 mps 739 mmHg 58%
    09:00 +30°C° 0.2 mm 1 mps 739 mmHg 52%
    10:00 +31°C° 0.2 mm 1 mps 739 mmHg 45%
    11:00 +32°C° 0.5 mm 2 mps 739 mmHg 44%
    12:00 +32°C° 0.5 mm 2 mps 739 mmHg 44%
    13:00 +34°C° 0.5 mm 3 mps 739 mmHg 43%
    14:00 +33°C° 0.7 mm 3 mps 739 mmHg 45%
    15:00 +32°C° 0.7 mm 2 mps 739 mmHg 47%
    16:00 +31°C° 0.7 mm 2 mps 739 mmHg 48%
    17:00 +29°C° 0.6 mm 2 mps 739 mmHg 55%
    18:00 +27°C° 0.6 mm 1 mps 739 mmHg 62%
    19:00 +25°C° 0.6 mm 1 mps 739 mmHg 68%
    20:00 +25°C° 0.7 mm 1 mps 739 mmHg 70%
    21:00 +24°C° 0.7 mm 1 mps 739 mmHg 72%
    22:00 +23°C° 0.7 mm 1 mps 739 mmHg 74%
    23:00 +23°C° 0.2 mm 1 mps 740 mmHg 74%

    18 August, Saturday

    Time Temperature Precipitation Wind Pressure Humidity
    00:00 +23°C° 0.2 mm 1 mps 740 mmHg 74%
    01:00 +22°C° 0.2 mm 1 mps 740 mmHg 75%
    02:00 +21°C° 0 mm 2 mps 739 mmHg 75%
    03:00 +21°C° 0 mm 2 mps 739 mmHg 75%
    04:00 +21°C° 0 mm 2 mps 739 mmHg 75%
    05:00 +23°C° 0 mm 2 mps 739 mmHg 71%
    06:00 +25°C° 0 mm 2 mps 740 mmHg 68%
    07:00 +26°C° 0 mm 2 mps 740 mmHg 64%
    08:00 +28°C° 0.1 mm 2 mps 740 mmHg 58%
    09:00 +30°C° 0.1 mm 1 mps 740 mmHg 52%
    10:00 +32°C° 0.1 mm 1 mps 740 mmHg 46%
    11:00 +32°C° 0.6 mm 2 mps 740 mmHg 45%
    12:00 +34°C° 0.6 mm 2 mps 739 mmHg 44%
    13:00 +34°C° 0.6 mm 3 mps 739 mmHg 43%
    14:00 +33°C° 0.6 mm 3 mps 739 mmHg 46%
    15:00 +33°C° 0.6 mm 3 mps 739 mmHg 49%
    16:00 +31°C° 0.6 mm 3 mps 739 mmHg 52%
    17:00 +29°C° 0.5 mm 3 mps 739 mmHg 58%
    18:00 +27°C° 0.5 mm 3 mps 739 mmHg 63%
    19:00 +26°C° 0.5 mm 2 mps 739 mmHg 68%
    20:00 +25°C° 0.8 mm 3 mps 740 mmHg 71%
    21:00 +24°C° 0.8 mm 3 mps 740 mmHg 74%
    22:00 +24°C° 0.8 mm 3 mps 740 mmHg 77%
    23:00 +24°C° 0.5 mm 3 mps 740 mmHg 78%

    19 August, Sunday

    Time Temperature Precipitation Wind Pressure Humidity
    00:00 +22°C° 0.5 mm 3 mps 740 mmHg 79%
    01:00 +22°C° 0.5 mm 3 mps 740 mmHg 80%
    02:00 +22°C° 0.1 mm 3 mps 740 mmHg 79%
    03:00 +22°C° 0.1 mm 3 mps 740 mmHg 79%
    04:00 +21°C° 0.1 mm 3 mps 740 mmHg 79%
    05:00 +24°C° 0 mm 3 mps 740 mmHg 74%
    06:00 +25°C° 0 mm 3 mps 740 mmHg 70%
    07:00 +26°C° 0 mm 3 mps 740 mmHg 66%
    08:00 +28°C° 0 mm 3 mps 740 mmHg 59%
    09:00 +30°C° 0 mm 3 mps 740 mmHg 52%
    10:00 +31°C° 0 mm 3 mps 740 mmHg 45%
    11:00 +33°C° 0.1 mm 4 mps 740 mmHg 44%
    12:00 +34°C° 0.1 mm 4 mps 739 mmHg 42%
    13:00 +34°C° 0.1 mm 4 mps 739 mmHg 40%
    14:00 +34°C° 0.2 mm 4 mps 739 mmHg 41%
    15:00 +34°C° 0.2 mm 4 mps 739 mmHg 42%
    16:00 +34°C° 0.2 mm 4 mps 739 mmHg 43%
    17:00 +31°C° 0.1 mm 3 mps 739 mmHg 48%
    18:00 +29°C° 0.1 mm 3 mps 739 mmHg 52%
    19:00 +27°C° 0.1 mm 3 mps 739 mmHg 57%
    20:00 +26°C° 0.1 mm 3 mps 740 mmHg 60%
    21:00 +25°C° 0.1 mm 3 mps 740 mmHg 63%
    22:00 +23°C° 0.1 mm 4 mps 740 mmHg 66%
    23:00 +24°C° 0.1 mm 3 mps 740 mmHg 67%
    Show more